ALBT66 YWLM-YWLM

Flight info

Callsign ALBT66
Flight time 1h 8m
Altitude 50000
Route 3312S15158E 3326S15200E DCT 3339S15151E 3339S15202E 3338S15222E 3326S15222E 3326S15203E 3339S15203E 3338S15222E 3327S15203E 3327S15221E 3338S15205E DCT 3345S15222E 3348S15151E 3339S15151E DCT 3309S15206E
Aircraft Q4/L-SBDFGM3RWXY/LB1

Departure

Time 2026-04-28 09:58
Airport Newcastle Airport (YWLM)

Arrival

Time 2026-04-28 11:06
Airport Newcastle Airport (YWLM)
Time Latitude Longitude Altitude Speed Heading
2026-04-28 09:27 -32.79794 151.84265 29 ft 0 kts 145°
2026-04-28 09:49 -32.79802 151.84269 8 ft 0 kts 175°
2026-04-28 09:49 -32.79807 151.84270 32 ft 4 kts 180°
2026-04-28 09:50 -32.79895 151.84247 30 ft 17 kts 228°
2026-04-28 09:50 -32.79852 151.84143 32 ft 19 kts 310°
2026-04-28 09:50 -32.79742 151.83989 31 ft 30 kts 311°
2026-04-28 09:50 -32.79591 151.83765 28 ft 38 kts 311°
2026-04-28 09:51 -32.79395 151.83499 27 ft 45 kts 311°
2026-04-28 09:51 -32.79183 151.83204 31 ft 49 kts 309°
2026-04-28 09:51 -32.78957 151.82889 29 ft 52 kts 310°
2026-04-28 09:51 -32.78722 151.82560 27 ft 47 kts 310°
2026-04-28 09:52 -32.78627 151.82360 27 ft 22 kts 219°
2026-04-28 09:52 -32.78653 151.82338 27 ft 0 kts 218°
2026-04-28 09:52 -32.78656 151.82335 27 ft 0 kts 219°
2026-04-28 09:57 -32.78670 151.82321 27 ft 12 kts 219°
2026-04-28 09:57 -32.78759 151.82321 26 ft 12 kts 129°
2026-04-28 09:57 -32.78770 151.82336 26 ft 0 kts 130°
2026-04-28 09:58 -32.78772 151.82339 26 ft 5 kts 131°
2026-04-28 09:58 -32.79037 151.82702 26 ft 146 kts 134°
2026-04-28 09:58 -32.79903 151.83888 225 ft 228 kts 129°
2026-04-28 09:58 -32.81097 151.84725 1149 ft 168 kts 181°
2026-04-28 09:59 -32.81757 151.84022 1479 ft 142 kts 253°
2026-04-28 09:59 -32.81613 151.83009 1601 ft 126 kts 285°
2026-04-28 09:59 -32.82061 151.82201 1506 ft 131 kts 200°
2026-04-28 09:59 -32.82941 151.81931 1445 ft 138 kts 202°
2026-04-28 10:00 -32.83296 151.80881 1357 ft 140 kts 266°
2026-04-28 10:00 -32.83621 151.79821 1334 ft 152 kts 223°
2026-04-28 10:00 -32.84645 151.79175 1405 ft 180 kts 206°
2026-04-28 10:00 -32.85346 151.77866 1388 ft 196 kts 249°
2026-04-28 10:01 -32.86141 151.76563 1431 ft 201 kts 212°
2026-04-28 10:01 -32.87489 151.76271 1508 ft 200 kts 169°
2026-04-28 10:01 -32.88636 151.77104 1594 ft 194 kts 129°
2026-04-28 10:01 -32.89429 151.78369 1752 ft 191 kts 124°
2026-04-28 10:02 -32.90187 151.79681 1899 ft 192 kts 120°
2026-04-28 10:02 -32.90915 151.81027 2063 ft 194 kts 119°
2026-04-28 10:02 -32.91648 151.82369 2219 ft 195 kts 120°
2026-04-28 10:02 -32.92408 151.83688 2351 ft 195 kts 122°
2026-04-28 10:03 -32.93212 151.84996 2499 ft 195 kts 124°
2026-04-28 10:03 -32.94027 151.86227 2642 ft 197 kts 127°
2026-04-28 10:03 -32.95018 151.87384 2765 ft 196 kts 141°
2026-04-28 10:03 -32.96142 151.88227 2904 ft 198 kts 148°
2026-04-28 10:04 -32.97395 151.88931 3050 ft 200 kts 156°
2026-04-28 10:04 -32.98698 151.89536 3188 ft 202 kts 159°
2026-04-28 10:04 -33.00026 151.90088 3336 ft 202 kts 160°
2026-04-28 10:04 -33.01344 151.90577 3492 ft 202 kts 162°
2026-04-28 10:05 -33.02706 151.91000 3650 ft 203 kts 163°
2026-04-28 10:05 -33.03981 151.91406 3793 ft 204 kts 161°
2026-04-28 10:05 -33.05353 151.91868 3941 ft 204 kts 161°
2026-04-28 10:05 -33.06722 151.92326 4092 ft 205 kts 162°
2026-04-28 10:06 -33.08098 151.92771 4232 ft 206 kts 162°
2026-04-28 10:06 -33.09488 151.93217 4393 ft 206 kts 162°
2026-04-28 10:06 -33.10869 151.93672 4555 ft 207 kts 163°
2026-04-28 10:06 -33.12271 151.94136 4703 ft 207 kts 162°
2026-04-28 10:07 -33.13646 151.94581 4849 ft 207 kts 163°
2026-04-28 10:07 -33.15037 151.95039 5007 ft 207 kts 163°
2026-04-28 10:07 -33.16423 151.95496 5158 ft 208 kts 163°
2026-04-28 10:07 -33.17810 151.95944 5299 ft 208 kts 163°
2026-04-28 10:08 -33.19217 151.96382 5455 ft 208 kts 165°
2026-04-28 10:08 -33.20636 151.96776 5607 ft 208 kts 166°
2026-04-28 10:08 -33.22038 151.97001 5738 ft 208 kts 175°
2026-04-28 10:08 -33.23488 151.97145 5893 ft 209 kts 174°
2026-04-28 10:09 -33.24921 151.97339 6048 ft 209 kts 171°
2026-04-28 10:09 -33.26384 151.97580 6201 ft 210 kts 171°
2026-04-28 10:09 -33.27819 151.97791 6357 ft 210 kts 172°
2026-04-28 10:09 -33.29262 151.97985 6509 ft 210 kts 172°
2026-04-28 10:10 -33.30699 151.98185 6661 ft 210 kts 173°
2026-04-28 10:10 -33.32147 151.98398 6810 ft 210 kts 172°
2026-04-28 10:10 -33.33599 151.98607 6958 ft 210 kts 172°
2026-04-28 10:10 -33.35047 151.98813 7097 ft 209 kts 172°
2026-04-28 10:11 -33.36489 151.99019 7244 ft 208 kts 172°
2026-04-28 10:11 -33.37930 151.99224 7390 ft 208 kts 172°
2026-04-28 10:11 -33.39308 151.99428 7520 ft 255 kts 172°
2026-04-28 10:11 -33.41288 151.99623 7640 ft 306 kts 180°
2026-04-28 10:12 -33.43432 151.99016 7746 ft 326 kts 198°
2026-04-28 10:12 -33.45596 151.98044 7907 ft 335 kts 202°
2026-04-28 10:12 -33.47733 151.96926 8061 ft 337 kts 204°
2026-04-28 10:12 -33.49804 151.95632 8202 ft 333 kts 211°
2026-04-28 10:13 -33.51748 151.94132 8350 ft 334 kts 212°
2026-04-28 10:13 -33.53783 151.92773 8491 ft 333 kts 206°
2026-04-28 10:13 -33.55809 151.91416 8640 ft 334 kts 210°
2026-04-28 10:13 -33.57790 151.89971 8787 ft 334 kts 209°
2026-04-28 10:14 -33.59816 151.88609 8946 ft 334 kts 208°
2026-04-28 10:14 -33.61829 151.87229 9094 ft 329 kts 208°
2026-04-28 10:14 -33.64025 151.86541 9152 ft 330 kts 181°
2026-04-28 10:14 -33.66242 151.87143 9253 ft 331 kts 154°
2026-04-28 10:15 -33.67976 151.88927 9374 ft 331 kts 126°
2026-04-28 10:15 -33.68775 151.91485 9510 ft 332 kts 97°
2026-04-28 10:15 -33.68422 151.94202 9662 ft 334 kts 68°
2026-04-28 10:15 -33.67112 151.96461 9819 ft 330 kts 50°
2026-04-28 10:16 -33.65776 151.98733 9851 ft 333 kts 59°
2026-04-28 10:16 -33.64999 152.01334 9872 ft 331 kts 75°
2026-04-28 10:16 -33.64765 152.03122 9914 ft 329 kts 85°
2026-04-28 10:16 -33.64655 152.05910 10063 ft 331 kts 89°
2026-04-28 10:17 -33.64639 152.09577 10270 ft 332 kts 92°
2026-04-28 10:17 -33.64657 152.11407 10365 ft 331 kts 92°
2026-04-28 10:17 -33.65215 152.14944 10479 ft 323 kts 117°
2026-04-28 10:17 -33.65948 152.16535 10584 ft 324 kts 121°
2026-04-28 10:18 -33.67146 152.18841 10728 ft 327 kts 126°
2026-04-28 10:18 -33.68420 152.21069 10864 ft 328 kts 128°
2026-04-28 10:18 -33.69589 152.23434 10873 ft 329 kts 116°
2026-04-28 10:18 -33.70021 152.26098 10836 ft 335 kts 95°
2026-04-28 10:19 -33.69649 152.28916 10830 ft 339 kts 75°
2026-04-28 10:19 -33.68490 152.31346 10836 ft 343 kts 53°
2026-04-28 10:19 -33.66631 152.33121 10848 ft 346 kts 30°
2026-04-28 10:19 -33.64284 152.33892 10827 ft 350 kts
2026-04-28 10:20 -33.61920 152.33440 10818 ft 351 kts 340°
2026-04-28 10:20 -33.59923 152.31800 10828 ft 350 kts 313°
2026-04-28 10:20 -33.58740 152.29304 10844 ft 343 kts 287°
2026-04-28 10:20 -33.58064 152.26565 10890 ft 344 kts 282°
2026-04-28 10:21 -33.57537 152.23769 10914 ft 343 kts 276°
2026-04-28 10:21 -33.57317 152.20933 10919 ft 343 kts 270°
2026-04-28 10:21 -33.57218 152.18068 10903 ft 344 kts 268°
2026-04-28 10:21 -33.57160 152.15193 10879 ft 345 kts 267°
2026-04-28 10:22 -33.57108 152.12319 10873 ft 346 kts 268°
2026-04-28 10:22 -33.57078 152.09452 10895 ft 344 kts 266°
2026-04-28 10:22 -33.57129 152.06619 10903 ft 345 kts 266°
2026-04-28 10:22 -33.57191 152.03748 10906 ft 345 kts 266°
2026-04-28 10:23 -33.57243 152.00860 10911 ft 345 kts 266°
2026-04-28 10:23 -33.57278 151.97983 10916 ft 345 kts 268°
2026-04-28 10:23 -33.57289 151.95101 10922 ft 345 kts 268°
2026-04-28 10:23 -33.57310 151.92223 10923 ft 345 kts 268°
2026-04-28 10:24 -33.57325 151.89355 10924 ft 345 kts 269°
2026-04-28 10:24 -33.57333 151.86474 10906 ft 343 kts 270°
2026-04-28 10:24 -33.57347 151.85845 10907 ft 339 kts 268°
2026-04-28 10:24 -33.57358 151.83493 10917 ft 340 kts 272°
2026-04-28 10:25 -33.57319 151.80689 10897 ft 343 kts 270°
2026-04-28 10:25 -33.57304 151.77984 10894 ft 344 kts 270°
2026-04-28 10:25 -33.57306 151.75152 10908 ft 345 kts 269°
2026-04-28 10:25 -33.57327 151.72280 10914 ft 345 kts 268°
2026-04-28 10:26 -33.57371 151.69392 10920 ft 345 kts 267°
2026-04-28 10:26 -33.57444 151.66581 10923 ft 344 kts 266°
2026-04-28 10:26 -33.57243 151.63728 10846 ft 344 kts 283°
2026-04-28 10:26 -33.56143 151.61229 10801 ft 348 kts 307°
2026-04-28 10:27 -33.54272 151.59395 10795 ft 349 kts 331°
2026-04-28 10:27 -33.51917 151.58633 10807 ft 348 kts 356°
2026-04-28 10:27 -33.49589 151.59121 10821 ft 345 kts 22°
2026-04-28 10:27 -33.47677 151.60775 10846 ft 341 kts 50°
2026-04-28 10:28 -33.46627 151.63270 10868 ft 338 kts 78°
2026-04-28 10:28 -33.46618 151.66050 10895 ft 330 kts 99°
2026-04-28 10:28 -33.46947 151.68765 10893 ft 333 kts 103°
2026-04-28 10:29 -33.47899 151.74229 10893 ft 335 kts 105°
2026-04-28 10:29 -33.48388 151.76962 10896 ft 335 kts 104°
2026-04-28 10:29 -33.48866 151.79699 10903 ft 335 kts 103°
2026-04-28 10:29 -33.49320 151.82436 10908 ft 335 kts 102°
2026-04-28 10:30 -33.49750 151.85177 10920 ft 335 kts 101°
2026-04-28 10:30 -33.50153 151.87931 10923 ft 335 kts 100°
2026-04-28 10:30 -33.50518 151.90672 10924 ft 335 kts 99°
2026-04-28 10:30 -33.50861 151.93461 10923 ft 335 kts 98°
2026-04-28 10:31 -33.51173 151.96204 10913 ft 335 kts 97°
2026-04-28 10:31 -33.51486 151.99002 10917 ft 335 kts 97°
2026-04-28 10:31 -33.51801 152.01768 10913 ft 335 kts 98°
2026-04-28 10:31 -33.52125 152.04465 10921 ft 335 kts 99°
2026-04-28 10:32 -33.52494 152.07297 10924 ft 335 kts 101°
2026-04-28 10:32 -33.52876 152.09998 10924 ft 335 kts 102°
2026-04-28 10:32 -33.53301 152.12785 10920 ft 335 kts 103°
2026-04-28 10:32 -33.53738 152.15505 10784 ft 339 kts 102°
2026-04-28 10:33 -33.54133 152.18046 10338 ft 264 kts 102°
2026-04-28 10:33 -33.54406 152.19974 9855 ft 214 kts 101°
2026-04-28 10:33 -33.54634 152.21655 9368 ft 196 kts 101°
2026-04-28 10:33 -33.54888 152.23214 8851 ft 186 kts 107°
2026-04-28 10:34 -33.55769 152.24290 8251 ft 189 kts 155°
2026-04-28 10:34 -33.57064 152.24263 7702 ft 194 kts 200°
2026-04-28 10:34 -33.57924 152.23267 7242 ft 197 kts 242°
2026-04-28 10:34 -33.58227 152.21696 6760 ft 192 kts 264°
2026-04-28 10:35 -33.58608 152.20151 6223 ft 194 kts 257°
2026-04-28 10:35 -33.58988 152.18598 5726 ft 195 kts 256°
2026-04-28 10:35 -33.59384 152.17040 5251 ft 196 kts 256°
2026-04-28 10:35 -33.59787 152.15478 4768 ft 197 kts 255°
2026-04-28 10:36 -33.60189 152.13910 4272 ft 197 kts 253°
2026-04-28 10:36 -33.60600 152.12337 3806 ft 198 kts 253°
2026-04-28 10:36 -33.61017 152.10763 3387 ft 196 kts 251°
2026-04-28 10:36 -33.61421 152.09250 3179 ft 187 kts 250°
2026-04-28 10:37 -33.61819 152.07778 3072 ft 180 kts 250°
2026-04-28 10:37 -33.62196 152.06377 3037 ft 174 kts 250°
2026-04-28 10:37 -33.62564 152.05008 3030 ft 171 kts 251°
2026-04-28 10:37 -33.62923 152.03661 3025 ft 169 kts 253°
2026-04-28 10:38 -33.63270 152.02329 3026 ft 169 kts 252°
2026-04-28 10:38 -33.63615 152.00985 3026 ft 168 kts 252°
2026-04-28 10:38 -33.63961 151.99630 3024 ft 168 kts 252°
2026-04-28 10:38 -33.64309 151.98292 3019 ft 168 kts 253°
2026-04-28 10:39 -33.64661 151.96957 3008 ft 167 kts 253°
2026-04-28 10:39 -33.65013 151.95633 3005 ft 166 kts 252°
2026-04-28 10:39 -33.65360 151.94318 2999 ft 166 kts 253°
2026-04-28 10:39 -33.65711 151.92986 3010 ft 167 kts 253°
2026-04-28 10:40 -33.66067 151.91659 3014 ft 167 kts 252°
2026-04-28 10:40 -33.66403 151.90364 3011 ft 166 kts 252°
2026-04-28 10:40 -33.66755 151.89028 3022 ft 167 kts 252°
2026-04-28 10:40 -33.67100 151.87695 3021 ft 168 kts 252°
2026-04-28 10:41 -33.67449 151.86362 3026 ft 168 kts 252°
2026-04-28 10:41 -33.67734 151.84996 2983 ft 165 kts 265°
2026-04-28 10:41 -33.67259 151.83840 2904 ft 159 kts 323°
2026-04-28 10:41 -33.66249 151.83651 2904 ft 148 kts 22°
2026-04-28 10:42 -33.65472 151.84373 2935 ft 141 kts 47°
2026-04-28 10:42 -33.64719 151.85138 2993 ft 142 kts 51°
2026-04-28 10:42 -33.64010 151.85985 2984 ft 145 kts 50°
2026-04-28 10:42 -33.63298 151.86835 2967 ft 145 kts 47°
2026-04-28 10:43 -33.62390 151.87383 2942 ft 144 kts 28°
2026-04-28 10:43 -33.61460 151.87843 2966 ft 145 kts 21°
2026-04-28 10:43 -33.60495 151.88210 2992 ft 147 kts 18°
2026-04-28 10:43 -33.59476 151.88400 3003 ft 150 kts
2026-04-28 10:44 -33.58434 151.88573 3009 ft 152 kts
2026-04-28 10:44 -33.57384 151.88768 2998 ft 153 kts
2026-04-28 10:44 -33.56338 151.88993 3004 ft 153 kts 11°
2026-04-28 10:44 -33.55300 151.89250 2996 ft 153 kts 12°
2026-04-28 10:45 -33.54254 151.89496 3002 ft 152 kts 14°
2026-04-28 10:45 -33.53210 151.89740 3012 ft 153 kts 15°
2026-04-28 10:45 -33.52163 151.89985 3018 ft 154 kts 16°
2026-04-28 10:45 -33.51106 151.90219 3030 ft 154 kts 14°
2026-04-28 10:46 -33.50045 151.90432 3020 ft 155 kts 11°
2026-04-28 10:46 -33.48979 151.90642 3010 ft 155 kts 12°
2026-04-28 10:46 -33.47921 151.90855 3010 ft 154 kts 13°
2026-04-28 10:46 -33.46882 151.91087 3007 ft 154 kts 13°
2026-04-28 10:47 -33.45814 151.91326 3012 ft 154 kts 14°
2026-04-28 10:47 -33.44761 151.91550 3029 ft 154 kts 13°
2026-04-28 10:47 -33.43704 151.91778 3032 ft 156 kts 14°
2026-04-28 10:47 -33.42685 151.91996 3032 ft 156 kts 14°
2026-04-28 10:48 -33.41835 151.92176 3027 ft 156 kts 13°
2026-04-28 10:48 -33.40741 151.92418 3016 ft 156 kts 13°
2026-04-28 10:48 -33.39703 151.92636 3009 ft 155 kts 13°
2026-04-28 10:48 -33.38629 151.92860 3010 ft 154 kts 14°
2026-04-28 10:49 -33.37579 151.93091 3013 ft 154 kts 13°
2026-04-28 10:49 -33.36527 151.93320 3015 ft 154 kts 13°
2026-04-28 10:49 -33.35472 151.93546 3016 ft 155 kts 13°
2026-04-28 10:49 -33.34411 151.93775 3013 ft 155 kts 13°
2026-04-28 10:50 -33.33344 151.94001 3019 ft 156 kts 13°
2026-04-28 10:50 -33.32635 151.94150 3019 ft 156 kts 14°
2026-04-28 10:50 -33.31211 151.94460 3010 ft 158 kts 13°
2026-04-28 10:50 -33.30064 151.94704 3017 ft 176 kts 13°
2026-04-28 10:51 -33.28837 151.94972 3016 ft 184 kts 13°
2026-04-28 10:51 -33.27558 151.95245 3022 ft 186 kts 13°
2026-04-28 10:51 -33.26281 151.95512 3020 ft 188 kts 13°
2026-04-28 10:51 -33.24998 151.95793 3010 ft 187 kts 13°
2026-04-28 10:52 -33.23713 151.96064 3007 ft 187 kts 13°
2026-04-28 10:52 -33.22433 151.96338 3014 ft 188 kts 13°
2026-04-28 10:52 -33.21147 151.96614 3027 ft 188 kts 13°
2026-04-28 10:52 -33.19852 151.96891 3026 ft 189 kts 13°
2026-04-28 10:53 -33.18564 151.97169 3028 ft 189 kts 14°
2026-04-28 10:53 -33.17270 151.97446 3026 ft 189 kts 13°
2026-04-28 10:53 -33.15990 151.97721 3018 ft 188 kts 13°
2026-04-28 10:53 -33.14685 151.97997 3015 ft 188 kts 13°
2026-04-28 10:54 -33.13393 151.98268 3020 ft 188 kts 13°
2026-04-28 10:54 -33.12104 151.98549 3022 ft 189 kts 13°
2026-04-28 10:54 -33.10895 151.98807 3016 ft 189 kts 13°
2026-04-28 10:54 -33.09603 151.99088 3022 ft 189 kts 13°
2026-04-28 10:55 -33.08742 151.99267 3020 ft 189 kts 13°
2026-04-28 10:55 -33.07020 151.99633 3026 ft 189 kts 13°
2026-04-28 10:55 -33.06146 151.99819 3024 ft 190 kts 13°
2026-04-28 10:55 -33.04850 152.00096 3024 ft 190 kts 13°
2026-04-28 10:56 -33.03552 152.00376 3023 ft 190 kts 13°
2026-04-28 10:56 -33.02250 152.00654 3016 ft 189 kts 13°
2026-04-28 10:56 -33.00955 152.00931 3014 ft 189 kts 13°
2026-04-28 10:56 -32.99664 152.01203 3013 ft 189 kts 13°
2026-04-28 10:57 -32.98368 152.01477 3017 ft 189 kts 12°
2026-04-28 10:57 -32.97071 152.01756 3022 ft 189 kts 13°
2026-04-28 10:57 -32.95777 152.02032 3034 ft 190 kts 13°
2026-04-28 10:57 -32.94478 152.02308 3027 ft 190 kts 13°
2026-04-28 10:58 -32.93172 152.02590 3018 ft 190 kts 13°
2026-04-28 10:58 -32.91872 152.02859 3027 ft 190 kts 13°
2026-04-28 10:58 -32.90572 152.03139 3022 ft 189 kts 13°
2026-04-28 10:58 -32.89273 152.03413 3024 ft 189 kts 12°
2026-04-28 10:59 -32.88079 152.03672 3020 ft 190 kts 13°
2026-04-28 10:59 -32.86780 152.03942 3021 ft 189 kts 13°
2026-04-28 10:59 -32.85492 152.04220 3019 ft 189 kts 12°
2026-04-28 10:59 -32.84185 152.04498 3021 ft 189 kts 12°
2026-04-28 11:00 -32.82889 152.04771 3024 ft 189 kts 13°
2026-04-28 11:00 -32.81626 152.04976 3016 ft 188 kts
2026-04-28 11:00 -32.80319 152.04934 3021 ft 189 kts
2026-04-28 11:00 -32.78994 152.04847 3019 ft 191 kts 359°
2026-04-28 11:01 -32.77748 152.04741 3020 ft 168 kts 358°
2026-04-28 11:01 -32.76641 152.04639 3021 ft 154 kts 359°
2026-04-28 11:01 -32.75615 152.04481 2989 ft 142 kts 349°
2026-04-28 11:01 -32.74987 152.03588 2874 ft 152 kts 284°
2026-04-28 11:02 -32.75201 152.02396 2914 ft 146 kts 242°
2026-04-28 11:02 -32.75560 152.01258 2945 ft 148 kts 246°
2026-04-28 11:02 -32.75837 151.99975 2747 ft 168 kts 258°
2026-04-28 11:02 -32.75921 151.98645 2783 ft 164 kts 269°
2026-04-28 11:03 -32.75913 151.97182 2529 ft 206 kts 270°
2026-04-28 11:03 -32.75861 151.95326 2277 ft 236 kts 271°
2026-04-28 11:03 -32.75847 151.93465 2098 ft 236 kts 269°
2026-04-28 11:03 -32.75879 151.91563 1922 ft 238 kts 267°
2026-04-28 11:04 -32.75969 151.89598 1649 ft 236 kts 264°
2026-04-28 11:04 -32.76128 151.87692 1297 ft 240 kts 263°
2026-04-28 11:04 -32.76288 151.85733 1163 ft 234 kts 263°
2026-04-28 11:04 -32.76465 151.83850 1274 ft 227 kts 263°
2026-04-28 11:05 -32.76853 151.82469 1062 ft 140 kts 225°
2026-04-28 11:05 -32.77652 151.82014 678 ft 125 kts 187°
2026-04-28 11:05 -32.78542 151.82152 150 ft 127 kts 147°
2026-04-28 11:05 -32.79105 151.82821 44 ft 110 kts 130°
2026-04-28 11:06 -32.79566 151.83451 43 ft 91 kts 129°
2026-04-28 11:06 -32.79934 151.83963 32 ft 70 kts 131°
2026-04-28 11:06 -32.80213 151.84355 26 ft 56 kts 129°
2026-04-28 11:06 -32.80181 151.84559 28 ft 20 kts 12°
2026-04-28 11:07 -32.80073 151.84449 28 ft 25 kts 311°
2026-04-28 11:07 -32.79953 151.84279 30 ft 24 kts 311°
2026-04-28 11:07 -32.79854 151.84280 29 ft 12 kts 320°
2026-04-28 11:07 -32.79794 151.84284 29 ft 2 kts 50°